NOAA 16 DEB, 41654

Orbit data source: Space-Track

NOAA 16 DEB, 41654 is space debris in SSO originally from a launch on Thu, 21 Sep 2000 UTC launched from the Air Force Western Test Range (AFWTR). Debris objects in space refer to the collection of defunct objects orbiting the Earth. Examples of debris include non-operational satellites, rocket bodies, and fragments generated from explosions, collisions, or faulty payload assembly.

Loading next visibility...
Identifier
41654, 2000-055NT
Orbit
SSO
Country
Flag of USUS
Related business
Manufacturer
Unknown
Mission
Spacecraft
Bus & Motor
Unknown
Mass
Unknown
Launch date (UTC)
2000-09-21 (26 years ago)
Launch vehicle
Unknown
Launch site
Air Force Western Test Range (AFWTR)
Object type
Payload
Rocket body
Debris
Shape & HBR
Unknown shape, 0.1 m
Radar Cross Section
Small (<0.1 m²)

Expand to show TLE details & history
Last TLE update: 23 hours ago

TLE from 23 hours ago
0 NOAA 16 DEB
1 41654U 00055NT  26127.85219127  .00002653  00000-0  10621-2 0  9991
2 41654  98.6239 179.1707 0034977 266.6575  93.0605 14.28855035519535
Epoch: 2026-05-07T20:27Z
TLE epoch observation values (Epoch: 2026-05-07T20:27:09.325Z)
Latitude
-0.00005°
Longitude
6.68947°
Altitude
799.917 km
Speed
7.453 km/s
True Right ascension
11h 56m 40s
True Declination
0° 00' 00"
Sunlit
Object was in full shadow at epoch
Visualization orbit readout
Latitude
Unknown
Longitude
Unknown
Altitude
Unknown
Speed
Unknown
Apparent Right ascension
Unknown
Apparent Declination
Unknown
Sunlit
N/A
Visualization observer readout
Local Sidereal Time
03:19:43
Azimuth
Unknown
Elevation
Unknown
Doppler factor
Unknown
Orbital elements
Apogee altitude
817.785 km
Perigee altitude
767.622 km
Semi-major axis
7,170.84 km
Eccentricity
0.0035
Inclination
98.6239°
RAAN
179.1707°
Arg. of periapsis
266.6575°
True anomaly
93.46064°
Mean anomaly
93.0605°
Eccentric anomaly
93.26058°
Mean motion
3.57428 °/min
Orbital period
100.72 mins
BSTAR
0.0010621
Loading maneuver chart data...
Computing Atmospheric mass density...
Loading historical data...
Loading historical data...
Loading historical data...
Loading historical data...
Loading historical data...
Loading historical data...
Loading historical data...

Documentation

Showing up to 5 results
|